This demonstration page uses our WeatherBlox Daily Observations layout. Learn more.

Left ArrowRight Arrow

41.12389, -100.76542

Hourly Observations for August 11, 2019

Temp ( °F °C ) Dew Point ( °F °C ) Humidity (%) Winds ( mph kmh ) Pressure ( in mb ) Visibility ( mi km ) Precip ( " mm )
12:53 am 00:53 Mostly Cloudy 71 21.7 66 18.9 84 84 VRB 3 6 29.89 1012 10 16 0.00 0.00
1:53 am 01:53 Clear 70 21.1 66 18.9 87 87 ESE 6 9 29.86 1011 10 16 0.00 0.00
2:53 am 02:53 Clear 69 20.6 66 18.9 90 90 NNW 6 9 29.91 1013 10 16 0.00 0.00
3:31 am 03:31 Mostly Cloudy 70 21.1 67 19.4 90 90 ENE 6 9 29.88 1012 10 16 0.00 0.00
3:53 am 03:53 Cloudy 71 21.7 67 19.4 87 87 ENE 6 9 29.91 1013 10 16 0.00 0.00
4:10 am 04:10 Partly Cloudy 71 21.7 67 19.4 87 87 NE 5 7 29.87 1012 10 16 0.00 0.00
4:53 am 04:53 Clear 70 21.1 67 19.4 90 90 Calm 29.89 1012 10 16 0.00 0.00
5:16 am 05:16 Mostly Cloudy 70 21.1 68 20 93 93 SE 10 17 29.83 1010 10 16 0.00 0.00
5:27 am 05:27 Cloudy 70 21.1 68 20 93 93 Calm 29.86 1011 10 16 0.00 0.00
5:53 am 05:53 Cloudy 71 21.7 68 20 90 90 VRB 3 6 29.89 1012 10 16 0.00 0.00
6:53 am 06:53 Cloudy 71 21.7 69 20.6 94 94 SW 3 6 29.92 1013 10 16 0.00 0.00
7:34 am 07:34 Mostly Sunny 71 21.7 68 20 90 90 N 5 7 29.88 1012 10 16 0.00 0.00
7:53 am 07:53 Sunny 72 22.2 69 20.6 91 91 Calm 29.92 1013 10 16 0.00 0.00
8:46 am 08:46 Mostly Cloudy 75 23.9 70 21.1 84 84 Calm 29.87 1012 10 16 0.00 0.00
8:53 am 08:53 Partly Cloudy 75 23.9 69 20.6 82 82 NE 3 6 29.93 1014 10 16 0.00 0.00
9:53 am 09:53 Sunny 77 25 70 21.1 79 79 Calm 29.92 1013 10 16 0.00 0.00
10:53 am 10:53 Mostly Sunny 80 26.7 70 21.1 71 71 ENE 8 13 29.93 1014 10 16 0.00 0.00
11:53 am 11:53 Mostly Sunny 82 27.8 69 20.6 65 65 ESE 14 22 29.93 1014 10 16 0.00 0.00
12:53 pm 12:53 Partly Cloudy 81 27.2 70 21.1 69 69 SE 17 28 29.93 1014 10 16 0.00 0.00
1:45 pm 13:45 Mostly Cloudy 80 26.7 71 21.7 74 74 SE 20 31 29.84 1010 10 16 0.00 0.00
1:53 pm 13:53 Mostly Cloudy 80 26.7 71 21.7 74 74 SE 18 30 29.93 1013 10 16 0.00 0.00
2:02 pm 14:02 Partly Cloudy 81 27.2 71 21.7 72 72 SE 16 26 29.82 1010 10 16 0.00 0.00
2:14 pm 14:14 Mostly Cloudy 80 26.7 71 21.7 74 74 SE 17 28 29.84 1010 10 16 0.00 0.00
2:28 pm 14:28 Mostly Cloudy 80 26.7 70 21.1 71 71 SSE 12 19 29.84 1010 10 16 0.00 0.00
2:53 pm 14:53 Partly Cloudy 79 26.1 70 21.1 74 74 SE 9 15 29.92 1013 10 16 0.00 0.00
3:53 pm 15:53 Mostly Sunny 84 28.9 72 22.2 67 67 SSE 15 24 29.88 1012 10 16 0.00 0.00
4:53 pm 16:53 Mostly Cloudy 84 28.9 71 21.7 65 65 SE 10 17 29.86 1011 10 16 0.00 0.00
5:53 pm 17:53 Cloudy 82 27.8 72 22.2 72 72 SE 9 15 29.84 1011 10 16 0.00 0.00
6:53 pm 18:53 Mostly Sunny 80 26.7 70 21.1 71 71 SSE 6 9 29.83 1010 10 16 0.00 0.00
7:53 pm 19:53 Sunny 77 25 70 21.1 79 79 SE 6 9 29.79 1009 10 16 0.00 0.00
8:53 pm 20:53 Mostly Clear 75 23.9 71 21.7 88 88 SE 7 11 29.80 1009 10 16 0.00 0.00
9:53 pm 21:53 Mostly Cloudy with Nearby Thunderstorms 75 23.9 72 22.2 90 90 SSE 5 7 29.82 1010 10 16 0.02 0.51
10:13 pm 22:13 Mostly Cloudy with Thunderstorms 75 23.9 72 22.2 90 90 SSE 7 11 29.76 1008 10 16 0.04 1.02
10:36 pm 22:36 Partly Cloudy with Nearby Thunderstorms 75 23.9 72 22.2 90 90 SE 15 24 29.74 1007 10 16 0.07 1.78
10:44 pm 22:44 Mostly Clear with Light Rain 75 23.9 72 22.2 90 90 SE 10 17 29.75 1008 10 16 0.07 1.78
10:53 pm 22:53 Clear with Light Rain 74 23.3 72 22.2 94 94 SSE 8 13 29.82 1010 10 16 0.08 2.03
11:10 pm 23:10 Mostly Cloudy with Nearby Thunderstorms 74 23.3 72 22.2 94 94 SE 10 17 29.77 1008 4 6 0.11 2.79
11:29 pm 23:29 Cloudy with Thunderstorms 74 23.3 72 22.2 94 94 ESE 3 6 29.74 1007 10 16 0.15 3.81
11:33 pm 23:33 Cloudy with Thunderstorms 74 23.3 72 22.2 94 94 ESE 3 6 29.74 1007 10 16 0.15 3.81
11:35 pm 23:35 Cloudy with Thunderstorms 74 23.3 72 22.2 94 94 E 3 6 29.74 1007 10 16 0.15 3.81
11:50 pm 23:50 Cloudy with Light Rain 73 23 70 21 89 89 WNW 8 13 29.75 1008 10 16 0.15 3.81
11:53 pm 23:53 Cloudy with Light Rain 73 22.8 70 21.1 90 90 WNW 8 13 29.80 1009 10 16 0.16 4.06

Powered by AerisWeather